Flag for Tunisia Weather past 2 weeks in Tunis, Tunisia

73 °F

Passing clouds.

Feels Like: 74 °F
Forecast: 69 / 90 °F
Wind: No wind

Location: Tunis-Carthage

Current Time: Oct 4, 2015 at 9:30:42 PM

Latest Report: Oct 4, 2015 at 9:00 PM

Visibility: N/A

Pressure: 30.12 "Hg

Humidity: 78%

Dew point: 66 °F

Location of TunisLocation

Historic Weather in Tunis — Graph


Tunis temperature yesterday

Maximum temperature yesterday: 82 °F (at 1:30 PM)
Minimum temperature yesterday: 63 °F (at 1:00 AM)
Average temperature yesterday: 72 °F

Past Weeks' High & Low Weather Summary

High91 °F (Oct 4, 2:00 PM)94% (Sep 29, 1:00 AM)30.21 "Hg (Sep 29, 1:00 AM)
Low63 °F (Sep 29, 1:30 AM)25% (Sep 23, 12:30 PM)29.80 "Hg (Sep 23, 2:30 PM)
Average74 °F63%30.02 "Hg
* Reported Sep 19 8:00 PM — Oct 4 8:30 PM, Tunis, Weather by CustomWeather, © 2015

Note: Actual official high and low records may vary slightly from our data, if they occured in-between our weather recording intervals... More about our weather records


Tunis weather history for previous 24 hours

Time TempWeatherWind HumidityBarometerVisibility
8:30 PM
Sun, Oct 4
75 °FPassing clouds.2 mph74%30.12 "HgN/A
8:00 PM77 °FPassing clouds.3 mph65%30.12 "HgN/A
7:30 PM77 °FPassing clouds.No wind69%30.12 "HgN/A
7:00 PM79 °FPassing clouds.5 mph65%30.12 "HgN/A
6:30 PM79 °FPassing clouds.9 mph65%30.09 "HgN/A
6:00 PM82 °FPassing clouds.8 mph62%30.09 "HgN/A
5:30 PM90 °FPassing clouds.5 mph31%30.07 "HgN/A
5:00 PM91 °FPassing clouds.6 mph28%30.07 "HgN/A
4:30 PM91 °FPassing clouds.6 mph28%30.07 "HgN/A
4:00 PM90 °FPassing clouds.6 mph29%30.09 "HgN/A
3:30 PM91 °FPassing clouds.6 mph28%30.09 "HgN/A
3:00 PM91 °FPassing clouds.7 mph26%30.09 "HgN/A
2:30 PM91 °FPassing clouds.7 mph26%30.09 "HgN/A
2:00 PM91 °FPassing clouds.6 mph26%30.09 "HgN/A
1:30 PM90 °FPassing clouds.5 mph31%30.12 "HgN/A
1:00 PM88 °FPassing clouds.3 mph38%30.12 "HgN/A
12:30 PM88 °FScattered clouds.3 mph38%30.12 "HgN/A
12:00 PM84 °FScattered clouds.3 mph48%30.12 "HgN/A
11:30 AM84 °FScattered clouds.5 mph51%30.15 "HgN/A
11:00 AM81 °FScattered clouds.5 mph58%30.15 "HgN/A
10:30 AM79 °FScattered clouds.8 mph61%30.15 "HgN/A
10:00 AM79 °FScattered clouds.8 mph61%30.18 "HgN/A
9:30 AM75 °FScattered clouds.9 mph74%30.18 "Hg5 mi
9:00 AM75 °FScattered clouds.10 mph74%30.15 "Hg5 mi
8:30 AM73 °FScattered clouds.12 mph78%30.15 "Hg5 mi
8:00 AM72 °FScattered clouds.7 mph83%30.15 "Hg5 mi
7:30 AM70 °FScattered clouds.3 mph88%30.15 "Hg5 mi
7:00 AM72 °FScattered clouds.3 mph83%30.15 "Hg5 mi
6:30 AM72 °FScattered clouds.3 mph83%30.15 "Hg5 mi
6:00 AM72 °FLight rain. Passing clouds.7 mph83%30.15 "Hg5 mi
5:00 AM70 °FPassing clouds.2 mph83%30.15 "HgN/A
4:00 AM70 °FPassing clouds.6 mph83%30.15 "HgN/A
3:00 AM72 °FPassing clouds.10 mph83%30.15 "HgN/A
2:30 AM72 °FPassing clouds.12 mph83%30.15 "HgN/A
2:00 AM72 °FPassing clouds.10 mph83%30.15 "HgN/A
1:30 AM72 °FPassing clouds.9 mph83%30.15 "HgN/A
1:00 AM73 °FPassing clouds.10 mph78%30.15 "HgN/A
12:30 AM72 °FPassing clouds.6 mph83%30.18 "HgN/A
12:00 AM72 °FPassing clouds.5 mph78%30.18 "HgN/A
11:30 PM
Sat, Oct 3
72 °FPassing clouds.5 mph78%30.18 "HgN/A
10:30 PM72 °FPassing clouds.9 mph78%30.18 "HgN/A
10:00 PM73 °FPassing clouds.9 mph69%30.18 "HgN/A
9:30 PM73 °FPassing clouds.9 mph69%30.18 "HgN/A
9:00 PM73 °FPassing clouds.10 mph69%30.15 "HgN/A
Weather by CustomWeather, © 2015

See weather overviewHow to use our weather pages